NJUST-1 (42722 NORAD) Tracking and Keplerian Element Data

This shows tracking and keplerian element data for the satellite.

Feedback or suggestion? Click here.




ElementValue
Catalog42722
NameNJUST-1
Epoch Orbit6496
Epoch Day196.12196174
Epoch Year2018
RAAN218.5645
Inclination51.6335
Eccentricity0.0005776
Argument of Perigee346.4604
Mean Anonmoly13.6237
Mean Motion15.67818864
Decay Rate0.00014253
L11 42722U 98067MB 18196.12196174 .00014253 00000-0 13181-3 0 9995
L22 42722 51.6335 218.5645 0005776 346.4604 13.6237 15.67818864 64966

Live tracking and technical data element details for NJUST-1 (NORAD 42722). NJUST-1 can be tracked NOW for your location showing map with azimuth and elevation plus other details from your city location.

Track the satellite on the map from your city or location and see movement details for azimuth, elevation, latitude, longitude, range, height, and movement on the map or in text.







IsCatalogInMostPopularTable: catalog: 42722, numindb: 101
Update: records affected: 1



GetName: 42722 NJUST-1

Hit Count: updated at: Sun, 15 Jul 2018 22:59:26 GMT